Date,TemperatureHighF,TemperatureAvgF,TemperatureLowF,DewpointHighF,DewpointAvgF,DewpointLowF,HumidityHigh,HumidityAvg,HumidityLow,PressureMaxIn,PressureMinIn,WindSpeedMaxMPH,WindSpeedAvgMPH,GustSpeedMaxMPH,PrecipitationSumIn
2013-1-1,35,26,14,19,11,0,64,54,51,29.97,29.77,24,11,24,0.00
2013-1-2,25,19,11,15,7,-1,66,58,52,30.18,29.91,24,9,24,0.00
2013-1-3,30,21,10,18,8,-1,68,58,53,30.15,29.91,24,7,24,0.00
2013-1-4,37,32,27,22,17,12,61,53,52,29.94,29.80,43,21,43,0.00
2013-1-5,37,33,29,21,18,14,53,53,52,30.24,29.94,30,10,30,0.00
2013-1-6,38,36,35,25,24,22,67,62,54,30.00,29.85,15,10,15,0.00
2013-1-7,36,28,20,24,15,8,65,58,53,30.33,29.97,15,6,15,0.00
2013-1-8,44,31,20,27,16,9,64,54,50,30.24,30.09,13,3,13,0.00
2013-1-9,51,36,21,32,20,8,63,54,49,30.24,29.88,36,12,36,0.00
2013-1-10,49,38,32,30,22,17,58,52,49,30.53,30.24,30,6,30,0.00
2013-1-11,44,39,33,28,24,19,63,55,50,30.36,29.88,17,8,17,0.12
2013-1-12,57,45,37,39,34,27,82,65,49,29.97,29.91,8,3,8,0.00
2013-1-13,66,54,44,46,41,37,95,63,48,29.94,29.74,26,6,26,0.00
2013-1-14,53,38,30,41,23,15,67,55,51,30.30,29.68,31,12,31,0.00
2013-1-15,38,30,28,22,15,13,53,53,51,30.33,30.12,13,5,13,0.00
2013-1-16,40,34,29,23,19,14,61,54,51,30.12,29.74,15,4,15,0.00
2013-1-17,36,26,17,20,12,4,63,54,51,30.12,29.77,26,10,26,0.00
2013-1-18,28,20,12,12,7,2,65,56,51,30.30,30.00,23,6,23,0.00
2013-1-19,50,42,28,31,25,12,52,50,49,30.00,29.59,28,9,28,0.00
2013-1-20,49,33,19,30,17,5,59,51,49,30.03,29.38,63,26,63,0.00
2013-1-21,23,20,15,8,5,1,55,53,52,30.00,29.80,20,9,20,0.00
2013-1-22,15,11,8,2,-2,-6,54,54,54,30.09,29.83,33,19,33,0.00
2013-1-23,19,7,-1,5,-6,-14,54,54,53,30.15,30.06,19,7,19,0.00
2013-1-24,21,7,-6,6,-6,-18,59,54,52,30.42,30.03,28,7,28,0.00
2013-1-25,23,13,5,8,0,-7,59,55,52,30.42,30.00,14,5,14,0.00
2013-1-26,26,14,1,10,0,-10,59,55,51,30.30,30.03,10,2,10,0.00
2013-1-27,38,23,17,21,9,4,64,54,50,30.48,30.30,11,3,11,0.00
2013-1-28,42,32,21,42,23,8,100,69,51,30.30,29.83,17,5,17,0.33
2013-1-29,52,40,32,52,40,32,100,100,100,30.03,29.74,13,3,13,0.55
2013-1-30,65,57,50,52,43,38,100,60,48,29.74,29.06,22,8,22,0.04
2013-1-31,55,32,23,46,18,8,78,55,50,29.65,29.00,56,27,56,0.17
2013-2-1,24,20,18,13,7,3,74,56,52,30.12,29.62,30,15,30,0.00
2013-2-2,23,18,13,8,4,0,56,54,52,30.12,29.91,20,7,20,0.00
2013-2-3,26,18,8,11,5,-4,65,55,51,29.91,29.74,21,5,21,0.00
2013-2-4,24,20,17,9,6,2,67,53,52,29.91,29.80,25,12,26,0.00
2013-2-5,31,23,13,15,9,3,64,55,50,29.94,29.80,9,3,9,0.00
2013-2-6,28,24,13,20,10,-1,74,55,51,30.30,29.83,28,8,28,0.00
2013-2-7,32,23,11,17,9,-2,59,54,51,30.36,30.06,20,7,20,0.00
2013-2-8,35,30,19,28,20,10,83,65,53,30.06,29.74,17,6,18,0.08
2013-2-9,25,18,10,11,7,1,69,62,54,30.36,29.97,0,0,0,0.00
2013-2-10,40,22,-1,23,9,-10,68,58,51,30.36,29.94,13,3,13,0.00
2013-2-11,57,39,35,37,23,19,68,51,47,29.94,29.53,44,15,44,0.13
2013-2-12,36,33,32,32,20,16,98,59,52,29.91,29.65,40,18,40,0.00
2013-2-13,50,33,24,31,19,11,72,56,49,29.85,29.65,8,3,8,0.00
2013-2-14,48,34,24,30,22,15,74,61,49,29.88,29.74,12,4,12,0.16
2013-2-15,39,35,26,29,20,10,74,54,51,30.00,29.71,34,16,34,0.04
2013-2-16,37,25,20,21,10,5,55,53,51,30.00,29.85,12,5,12,0.00
2013-2-17,22,16,12,10,3,-2,65,56,52,30.09,29.83,36,11,36,0.00
2013-2-18,40,22,12,23,8,-2,65,53,50,30.21,29.85,17,7,17,0.00
2013-2-19,45,34,27,27,19,12,71,54,50,29.88,29.50,31,13,31,0.04
2013-2-20,27,23,20,14,8,6,63,54,52,29.97,29.71,38,23,38,0.00
2013-2-21,22,18,14,12,6,0,74,59,53,30.33,29.91,27,12,27,0.00
2013-2-22,35,28,18,22,14,6,66,58,52,30.33,29.97,17,6,17,0.00
2013-2-23,42,36,32,27,22,17,61,56,51,29.97,29.83,13,5,13,0.05
2013-2-24,33,32,30,26,19,16,81,59,53,29.97,29.80,18,11,18,0.00
2013-2-25,37,33,26,21,19,15,63,57,51,30.18,29.97,17,6,17,0.00
2013-2-26,46,34,23,31,22,14,92,60,50,30.18,29.80,25,8,25,0.00
2013-2-27,40,34,33,34,30,26,100,84,64,29.83,29.50,18,6,18,0.79
2013-2-28,40,35,33,34,28,22,100,76,53,29.68,29.50,15,7,15,0.13
2013-3-1,34,31,27,30,20,13,87,64,53,29.85,29.65,17,8,17,0.00
2013-3-2,27,25,23,17,14,10,74,63,53,29.88,29.80,15,8,15,0.00
2013-3-3,26,23,21,18,12,9,79,60,54,29.83,29.77,18,8,18,0.00
2013-3-4,31,26,22,15,12,8,75,56,53,29.97,29.80,28,16,28,0.00
2013-3-5,39,28,22,23,15,12,70,57,51,30.06,29.91,15,6,15,0.00
2013-3-6,45,33,21,27,20,12,72,60,50,30.06,29.91,15,5,15,0.00
2013-3-7,40,35,31,27,21,16,70,57,51,30.21,30.06,12,4,12,0.00
2013-3-8,44,35,28,27,19,13,55,52,50,30.33,30.15,17,6,17,0.00
2013-3-9,58,38,26,38,23,15,71,55,47,30.36,30.15,9,3,9,0.00
2013-3-10,65,49,32,43,30,17,53,49,45,30.18,29.91,16,6,16,0.00
2013-3-11,55,52,48,36,33,30,49,49,48,29.94,29.65,22,8,23,0.00
2013-3-12,56,42,35,43,28,19,86,58,47,29.85,29.62,29,13,29,0.25
2013-3-13,40,33,24,30,20,14,100,57,51,29.88,29.74,31,14,31,0.00
2013-3-14,37,27,19,21,12,5,73,54,50,29.97,29.85,46,21,46,0.00
2013-3-15,40,31,22,25,17,7,72,55,51,29.97,29.62,32,12,32,0.00
2013-3-16,37,26,13,21,12,2,74,55,52,29.94,29.80,12,5,12,0.00
2013-3-17,47,26,11,29,14,-2,78,60,49,30.27,29.91,13,5,13,0.00
2013-3-18,37,25,11,32,14,-2,100,66,50,30.27,29.71,26,10,26,0.00
2013-3-19,42,32,25,39,26,10,100,79,51,29.77,29.62,33,11,33,0.12
2013-3-20,41,29,23,24,14,9,55,53,51,29.80,29.71,29,14,29,0.00
2013-3-21,39,26,18,22,11,4,59,54,50,29.77,29.65,22,9,22,0.00
2013-3-22,38,30,25,21,16,11,71,55,51,29.85,29.65,24,14,24,0.00
2013-3-23,48,34,28,30,18,13,58,53,49,29.97,29.80,23,11,23,0.00
2013-3-24,56,35,23,36,20,11,73,53,47,29.97,29.68,10,5,13,0.00
2013-3-25,52,36,30,33,21,15,58,52,48,29.71,29.56,15,6,15,0.00
2013-3-26,67,41,28,45,25,15,67,53,45,29.88,29.65,13,5,13,0.00
2013-3-27,51,38,32,33,24,17,99,58,49,30.00,29.85,24,12,24,0.00
2013-3-28,55,40,33,36,29,21,100,68,48,30.12,29.97,15,8,15,0.00
2013-3-29,62,44,36,41,27,21,60,52,46,30.12,30.03,15,9,15,0.00
2013-3-30,75,45,29,51,27,14,57,50,43,30.15,29.97,14,6,14,0.00
2013-3-31,62,44,33,62,33,18,99,67,46,30.03,29.56,21,4,21,0.17
2013-4-1,44,42,34,44,33,20,99,72,50,29.91,29.50,38,13,38,0.08
2013-4-2,43,43,43,26,26,26,50,50,50,30.03,29.85,35,16,35,0.00
2013-4-3,43,43,43,26,26,26,50,50,50,30.30,30.00,30,14,30,0.00
2013-4-4,43,43,43,26,26,26,50,50,50,30.30,29.85,16,5,16,0.00
2013-4-5,43,43,43,26,26,26,50,50,50,30.06,29.83,17,8,17,0.00
2013-4-6,43,43,43,26,26,26,50,50,50,30.27,30.00,12,4,12,0.00
2013-4-7,43,43,43,26,26,26,50,50,50,30.00,29.65,38,12,38,0.00
2013-4-8,43,43,43,26,26,26,50,50,50,30.09,29.74,12,3,12,0.00
2013-4-9,43,43,43,26,26,26,50,50,50,30.06,29.68,37,9,37,0.50
2013-4-10,43,43,43,26,26,26,50,50,50,30.00,29.83,20,5,20,0.58
2013-4-11,43,43,43,26,26,26,50,50,50,30.09,29.91,17,5,17,0.25
2013-4-12,43,43,43,26,26,26,50,50,50,29.94,29.50,32,14,32,0.92
2013-4-13,43,43,43,26,26,26,50,50,50,29.88,29.74,28,11,28,0.00
2013-4-14,43,43,43,26,26,26,50,50,50,30.15,29.85,20,6,20,0.00
2013-4-15,43,43,43,26,26,26,50,50,50,30.12,29.97,16,7,16,0.00
2013-4-16,43,43,43,26,26,26,50,50,50,30.18,29.91,20,7,20,0.12
2013-4-17,43,43,43,26,26,26,50,50,50,30.33,30.18,13,4,13,0.00
2013-4-18,43,43,43,26,26,26,50,50,50,30.18,29.71,24,10,24,0.05
2013-4-19,43,43,43,26,26,26,50,50,50,29.74,29.35,41,16,41,0.00
2013-4-20,43,43,43,26,26,26,50,50,50,30.36,29.71,39,17,39,0.00
2013-4-21,43,43,43,26,26,26,50,50,50,30.59,30.36,8,2,8,0.00
2013-4-22,72,46,43,60,30,26,72,53,50,30.86,30.33,15,4,15,0.03
2013-4-23,60,50,37,40,35,28,95,59,36,30.85,30.38,14,5,16,0.00
2013-4-24,70,52,37,53,42,30,90,69,50,30.59,30.08,24,9,30,0.04
2013-4-25,57,46,34,39,32,24,91,62,29,30.80,30.59,14,5,15,0.08
2013-4-26,52,44,34,39,33,28,94,70,42,30.96,30.79,12,4,12,0.01
2013-4-27,68,50,32,41,33,29,91,57,27,30.94,30.72,8,2,8,0.00
2013-4-28,74,59,43,47,38,34,87,50,24,30.73,30.51,20,6,20,0.08
2013-4-29,64,56,50,52,48,44,88,75,59,30.55,30.48,20,6,20,0.10
2013-4-30,72,64,54,55,52,49,91,65,49,30.71,30.53,16,7,16,0.00
2013-5-1,76,65,54,51,41,30,78,48,20,30.84,30.71,16,4,16,0.00
2013-5-2,77,63,47,46,38,33,64,42,23,30.90,30.75,12,3,12,0.00
2013-5-3,75,63,45,48,43,38,90,51,29,30.79,30.69,13,3,13,0.00
2013-5-4,74,63,52,45,42,37,65,47,29,30.72,30.63,13,2,13,0.00
2013-5-5,77,61,42,48,43,33,94,56,21,30.69,30.56,12,2,12,0.00
2013-5-6,77,66,45,48,40,26,82,42,16,30.65,30.49,10,3,10,0.00
2013-5-7,78,63,47,57,50,41,94,64,33,30.60,30.48,8,2,8,0.00
2013-5-8,70,61,51,61,55,48,96,81,59,30.54,30.39,13,2,13,0.13
2013-5-9,71,60,52,62,56,51,97,87,63,30.43,30.35,12,2,12,0.13
2013-5-10,74,60,49,62,56,48,98,86,60,30.43,30.21,22,2,22,0.86
2013-5-11,59,55,46,58,50,43,96,85,68,30.26,30.13,23,8,23,0.09
2013-5-12,51,44,37,45,35,28,97,71,43,30.40,30.17,30,15,30,0.02
2013-5-13,49,42,36,33,31,27,81,67,44,30.61,30.40,24,13,24,0.01
2013-5-14,58,45,28,38,32,26,97,64,30,30.65,30.47,12,3,12,0.00
2013-5-15,81,58,42,60,42,31,85,59,37,30.47,29.99,34,9,34,0.08
2013-5-16,74,62,46,50,42,34,86,52,25,30.48,30.20,26,7,26,0.00
2013-5-17,66,53,37,45,40,30,97,68,27,30.71,30.48,7,1,7,0.00
2013-5-18,71,55,37,50,43,36,97,67,39,30.76,30.64,10,2,10,0.00
2013-5-19,78,66,57,62,56,50,83,70,54,30.65,30.47,14,5,14,0.00
2013-5-20,85,71,56,68,62,55,96,75,51,30.52,30.32,9,2,9,0.01
2013-5-21,85,70,60,72,64,58,97,83,58,30.38,30.21,20,3,20,0.59
2013-5-22,86,71,60,73,65,59,98,82,51,30.27,30.11,15,3,15,0.09
2013-5-23,75,66,46,66,59,45,95,78,59,30.34,30.17,32,6,32,0.50
2013-5-24,50,43,39,44,39,36,96,86,63,30.66,30.34,16,5,16,0.30
2013-5-25,58,49,40,42,37,34,83,65,41,30.69,30.61,17,7,17,0.00
2013-5-26,62,53,42,43,37,32,88,56,34,30.68,30.58,22,7,22,0.00
2013-5-27,70,56,45,45,38,32,85,54,26,30.75,30.62,12,4,12,0.00
2013-5-28,63,56,48,58,50,41,96,82,63,30.65,30.43,9,3,9,0.67
2013-5-29,81,70,58,69,62,56,98,78,50,30.48,30.38,29,7,29,0.89
2013-5-30,87,74,60,70,63,59,97,71,39,30.58,30.48,18,4,18,0.00
2013-5-31,90,76,61,72,65,60,97,71,37,30.54,30.38,12,2,12,0.00
2013-6-1,88,75,63,70,66,60,96,75,46,30.43,30.23,26,5,26,0.12
2013-6-2,77,69,56,67,63,52,97,81,53,30.34,30.15,31,9,31,0.57
2013-6-3,63,56,50,54,46,39,88,70,43,30.49,30.33,15,5,15,0.00
2013-6-4,68,56,46,48,43,35,91,64,34,30.64,30.49,12,4,12,0.00
2013-6-5,68,58,47,55,46,38,92,65,42,30.70,30.57,8,2,8,0.00
2013-6-6,57,55,53,56,52,45,97,88,70,30.58,30.33,10,3,10,2.45
2013-6-7,61,58,56,60,57,55,98,97,94,30.33,30.26,4,1,4,0.16
2013-6-8,63,58,55,60,57,54,99,94,81,30.55,30.27,9,3,9,0.02
2013-6-9,76,64,53,60,55,51,95,74,48,30.67,30.55,9,3,9,0.00
2013-6-10,68,63,56,64,59,54,96,87,71,30.60,30.19,14,4,14,0.37
2013-6-11,66,63,56,63,61,54,98,91,79,30.30,30.11,20,6,20,0.28
2013-6-12,75,64,52,58,55,51,97,74,47,30.41,30.25,7,2,7,0.00
2013-6-13,64,60,54,59,57,53,98,90,78,30.25,29.99,14,4,14,0.94
2013-6-14,74,63,52,62,56,52,98,81,57,30.43,30.25,14,4,14,0.00
2013-6-15,75,64,52,58,53,48,97,69,38,30.52,30.42,12,4,12,0.00
2013-6-16,74,66,61,67,60,53,95,81,72,30.42,30.17,16,4,16,0.30
2013-6-17,77,68,59,67,61,58,96,81,56,30.40,30.29,20,4,20,0.25
2013-6-18,69,61,51,59,53,48,97,77,48,30.50,30.36,10,2,10,0.00
2013-6-19,67,58,46,52,46,37,97,69,34,30.68,30.50,8,2,8,0.00
2013-6-20,75,59,41,58,47,40,98,69,32,30.74,30.68,9,1,9,0.00
2013-6-21,83,66,47,62,53,46,98,68,31,30.76,30.64,6,1,6,0.00
2013-6-22,86,72,56,74,65,55,97,80,51,30.65,30.47,12,2,12,0.04
2013-6-23,88,77,68,76,70,66,96,80,62,30.53,30.45,12,3,12,0.01
2013-6-24,88,79,70,72,66,62,85,67,47,30.49,30.39,20,7,20,0.00
2013-6-25,82,75,66,71,66,63,92,75,61,30.40,30.25,20,7,20,0.04
2013-6-26,86,74,66,73,68,63,96,81,59,30.29,30.23,13,5,13,0.03
2013-6-27,80,71,61,73,67,60,98,88,71,30.28,30.08,12,2,12,0.70
2013-6-28,66,64,61,66,63,60,98,96,92,30.08,29.97,8,1,8,0.20
2013-6-29,77,67,61,69,63,61,98,89,61,30.16,29.98,6,1,6,0.36
2013-6-30,78,69,61,70,64,60,98,85,65,30.40,30.16,5,1,5,0.01
2013-7-1,68,64,61,65,63,60,98,94,86,30.51,30.38,8,2,8,0.57
2013-7-2,79,67,60,73,64,60,98,92,78,30.58,30.49,5,1,5,0.01
2013-7-3,88,72,63,75,68,62,99,88,59,30.62,30.55,14,2,14,0.59
2013-7-4,85,78,69,75,71,68,98,81,60,30.63,30.56,10,4,10,1.27
2013-7-5,85,75,68,76,71,67,99,88,65,30.61,30.51,13,2,13,0.78
2013-7-6,88,76,68,73,68,64,97,79,51,30.61,30.49,10,3,10,0.00
2013-7-7,84,76,68,74,70,66,98,81,61,30.52,30.39,14,5,14,0.08
2013-7-8,84,74,68,75,69,65,98,86,64,30.51,30.43,10,3,10,0.74
2013-7-9,83,73,67,75,70,66,99,91,71,30.51,30.37,9,1,9,0.10
2013-7-10,87,77,68,76,71,64,98,82,62,30.37,30.16,20,6,20,0.03
2013-7-11,78,70,61,67,62,58,98,76,57,30.49,30.27,13,4,13,0.00
2013-7-12,77,67,59,66,62,58,99,86,61,30.65,30.49,6,1,6,0.00
2013-7-13,80,71,59,71,66,58,99,86,70,30.72,30.63,8,2,8,0.00
2013-7-14,90,77,64,78,70,64,99,80,55,30.77,30.70,7,2,7,0.00
2013-7-16,90,84,68,74,70,66,96,66,47,30.73,30.66,7,1,7,0.00
2013-7-17,92,80,67,81,73,66,98,80,51,30.69,30.52,16,3,16,0.14
2013-7-18,88,80,72,80,74,68,95,83,67,30.55,30.40,24,4,24,1.08
2013-7-19,91,82,70,77,71,64,90,72,49,30.40,30.17,26,10,26,0.05
2013-7-20,80,72,67,71,67,64,97,87,59,30.35,30.17,14,4,14,0.57
2013-7-21,76,68,60,66,62,58,98,82,60,30.48,29.95,7,2,7,0.00
2013-7-22,80,68,58,68,63,57,98,84,61,29.97,29.75,4,1,8,0.00
2013-7-23,83,73,67,71,67,58,98,82,52,29.75,29.56,10,3,16,0.05
2013-7-24,70,62,51,60,54,50,97,75,55,30.02,29.65,11,3,16,0.00
2013-7-25,72,61,47,59,53,46,98,77,46,30.11,30.02,6,1,9,0.00
2013-7-26,76,64,48,63,56,48,99,79,52,30.10,29.99,3,0,7,0.00
2013-7-27,80,67,54,69,63,53,98,86,66,29.99,29.81,6,1,10,0.16
2013-7-28,74,68,59,67,63,58,97,86,67,30.45,29.79,6,1,8,0.03
2013-7-29,72,63,55,61,57,52,98,83,52,30.60,29.97,13,4,13,0.03
2013-7-30,77,66,57,64,59,55,98,80,58,30.68,30.60,14,4,14,0.00
2013-7-31,81,67,53,65,60,53,99,80,47,30.63,30.41,8,2,8,0.00
2013-8-1,78,68,62,70,64,60,97,86,64,30.41,29.77,20,3,20,0.42
2013-8-2,75,66,58,67,62,58,98,86,64,30.37,30.30,10,2,10,0.50
2013-8-3,75,67,61,63,59,53,97,78,47,30.39,30.29,16,6,16,0.21
2013-8-4,71,64,57,61,56,52,91,76,55,30.52,30.39,18,6,18,0.00
2013-8-5,75,63,51,60,54,50,98,77,45,30.59,30.01,13,3,13,0.00
2013-8-6,79,65,50,62,56,49,99,77,44,30.55,30.47,6,2,6,0.00
2013-8-7,81,71,62,69,64,59,93,79,65,30.48,30.35,14,4,14,0.00
2013-8-8,84,72,65,75,68,64,98,88,66,30.43,29.91,7,2,7,0.35
2013-8-9,78,70,66,71,67,59,99,91,69,30.38,30.31,12,3,12,0.61
2013-8-10,72,65,53,61,57,50,98,77,49,30.57,29.93,14,4,14,0.00
2013-8-11,76,62,48,62,56,48,99,81,52,30.61,30.06,12,2,12,0.00
2013-8-12,78,67,57,67,61,57,98,83,55,30.53,30.33,9,2,9,0.00
2013-8-13,74,66,58,67,60,49,97,83,62,30.33,30.20,21,6,21,0.25
2013-8-14,68,60,53,56,51,48,95,76,51,30.55,29.88,20,9,20,0.02
2013-8-15,74,62,50,61,52,48,93,72,48,30.61,30.05,18,5,18,0.00
2013-8-16,77,63,49,61,54,48,98,77,47,30.68,30.14,9,2,9,0.00
2013-8-17,80,65,50,64,58,50,99,80,48,30.78,30.22,6,1,6,0.00
2013-8-18,81,67,55,66,60,54,99,81,48,30.73,30.13,7,1,7,0.00
2013-8-19,82,69,57,67,62,56,98,80,47,30.59,30.49,8,2,8,0.00
2013-8-20,83,69,55,65,61,54,99,78,48,30.60,30.52,14,3,14,0.00
2013-8-21,85,71,56,69,64,56,99,80,52,30.63,30.48,10,2,10,0.00
2013-8-22,84,71,60,73,66,59,98,85,62,30.50,30.34,18,4,18,0.65
2013-8-23,73,64,53,63,58,52,99,83,61,30.68,30.10,7,1,7,0.01
2013-8-24,76,62,50,60,54,49,99,79,43,30.83,30.19,7,1,7,0.00
2013-8-25,82,66,48,66,57,47,99,76,41,30.83,30.60,15,3,15,0.00
2013-8-26,77,70,65,71,66,59,97,87,72,30.62,30.38,17,5,17,1.31
2013-8-27,83,72,65,76,69,64,99,91,72,30.41,30.34,6,2,6,0.01
2013-8-28,84,73,65,76,70,64,99,89,70,30.41,30.31,5,2,5,0.00
2013-8-29,83,72,62,75,68,62,99,89,66,30.50,30.41,5,1,5,0.01
2013-8-30,63,59,59,62,59,59,99,99,98,30.48,30.43,1,0,1,0.00
2013-8-31,59,59,59,59,59,59,99,99,99,30.44,30.44,0,0,0,0.00
2013-9-1,71,59,59,70,59,59,99,99,96,30.44,29.72,3,0,4,0.33
2013-9-2,82,72,62,74,68,59,98,89,70,29.75,29.62,15,2,20,0.22
2013-9-3,66,63,60,59,58,57,93,84,73,29.90,29.74,12,4,19,0.00
2013-9-4,77,66,51,63,56,51,98,73,42,29.96,29.90,16,6,22,0.00
2013-9-5,67,59,49,61,50,41,96,73,47,30.19,29.93,9,2,16,0.00
2013-9-6,70,55,40,53,47,40,98,77,43,30.27,30.07,9,1,13,0.00
2013-9-7,66,58,48,62,55,47,98,88,70,30.07,29.84,6,1,11,0.06
2013-9-8,66,60,45,63,52,44,98,78,47,30.09,29.82,6,1,9,0.09
2013-9-9,77,59,42,61,52,41,99,80,50,30.14,29.95,4,1,12,0.00
2013-9-10,91,76,62,77,70,60,95,82,60,29.97,29.88,17,3,21,0.21
2013-9-11,91,82,70,79,72,67,88,74,52,29.98,29.85,11,4,17,0.00
2013-9-12,73,68,60,69,66,59,97,91,83,29.88,29.68,8,2,18,0.14
2013-9-13,60,55,50,59,53,48,97,94,88,29.98,29.70,7,1,11,0.49
2013-9-14,61,51,42,51,46,41,98,84,59,30.11,29.97,9,2,13,0.00
2013-9-15,68,55,41,56,49,41,99,82,59,30.15,30.02,9,2,17,0.01
2013-9-16,54,50,40,53,49,40,98,94,78,30.36,30.05,8,1,8,0.18
2013-9-17,65,49,34,47,41,34,99,79,45,30.49,30.30,4,0,11,0.01
2013-9-18,73,55,37,56,47,37,99,79,44,30.29,30.09,4,1,6,0.01
2013-9-19,78,60,43,60,52,42,99,80,46,30.11,29.99,4,0,8,0.00
2013-9-20,83,66,50,66,59,50,99,79,49,29.99,29.75,9,1,11,0.00
2013-9-21,69,62,53,63,59,52,98,90,73,29.75,29.60,10,2,17,0.83
2013-9-22,55,52,49,52,46,42,96,82,67,29.99,29.68,13,5,19,0.01
2013-9-23,57,50,39,47,44,39,98,80,62,30.13,29.99,7,1,15,0.00
2013-9-24,63,49,38,50,43,37,98,81,50,30.13,29.99,6,1,9,0.00
2013-9-25,68,51,36,55,45,36,99,83,51,30.00,29.93,5,1,8,0.00
2013-9-26,70,53,38,58,48,37,99,86,58,30.13,29.99,5,1,6,0.01
2013-9-27,68,54,42,58,50,41,99,88,66,30.25,30.13,5,0,6,0.00
2013-9-28,73,56,41,59,51,41,99,84,55,30.29,30.17,7,1,11,0.01
2013-9-29,74,59,45,57,51,45,99,79,52,30.17,29.98,5,1,11,0.00
2013-9-30,75,60,47,62,55,46,98,86,60,30.00,29.91,3,0,7,0.00
2013-10-1,75,64,57,62,58,54,98,82,53,30.00,29.88,12,2,13,0.00
2013-10-2,76,65,52,64,59,51,98,82,56,30.05,29.89,14,3,18,0.00
2013-10-3,74,58,42,58,50,41,98,79,38,30.11,30.00,4,0,7,0.19
2013-10-4,66,60,57,65,59,56,98,95,89,30.04,29.96,2,0,4,0.38
2013-10-5,63,60,57,60,58,57,98,94,87,30.07,30.02,3,0,6,0.01
2013-10-6,81,68,58,72,65,57,99,89,72,30.02,29.73,7,2,16,0.29
2013-10-7,71,61,50,65,55,46,96,82,63,30.00,29.60,17,6,24,0.52
2013-10-8,62,52,42,49,45,41,98,81,54,30.34,30.01,9,2,13,0.00
2013-10-9,67,50,35,50,43,34,99,80,47,30.41,30.27,7,1,8,0.00
2013-10-10,64,49,36,50,44,36,99,85,55,30.28,30.15,3,0,6,0.01
2013-10-11,69,51,40,55,47,40,99,88,52,30.15,30.09,3,0,5,0.00
2013-10-12,74,54,36,53,42,34,99,72,23,30.19,30.11,6,1,12,0.01
2013-10-13,73,61,51,61,56,45,97,84,62,30.26,30.19,7,2,12,0.13
2013-10-14,62,56,45,59,53,44,98,92,72,30.31,30.23,5,1,8,0.27
2013-10-15,68,53,39,57,50,39,99,88,66,30.27,29.95,6,1,12,0.01
2013-10-16,65,60,56,59,54,48,95,81,64,29.95,29.74,7,2,13,0.26
2013-10-17,64,56,46,53,50,45,97,82,58,29.86,29.63,10,3,13,0.46
2013-10-18,59,52,42,52,44,38,97,77,46,29.89,29.68,17,6,23,0.06
2013-10-19,63,54,42,47,44,41,96,72,51,29.88,29.61,13,4,22,0.06
2013-10-20,53,46,40,44,41,37,91,81,62,29.98,29.72,12,4,20,0.00
2013-10-21,66,55,43,50,41,37,92,63,35,29.98,29.77,13,2,20,0.00
2013-10-22,53,46,38,49,38,30,96,75,51,29.83,29.71,18,6,25,0.16
2013-10-23,45,39,32,39,35,30,96,86,72,29.81,29.67,14,2,14,0.07
2013-10-24,48,39,34,37,33,30,94,79,52,29.99,29.77,18,8,28,0.10
2013-10-25,50,41,34,39,36,33,96,85,63,30.17,29.99,11,4,19,0.02
2013-10-26,46,43,39,36,32,27,89,66,52,30.12,29.78,21,7,36,0.00
2013-10-27,48,42,37,37,35,32,91,77,59,30.05,29.79,16,5,22,0.00
2013-10-28,48,41,25,40,32,23,94,74,54,30.39,30.02,10,3,18,0.00
2013-10-29,46,33,21,32,27,20,97,80,53,30.48,30.30,4,0,7,0.00
2013-10-30,56,42,36,43,38,32,97,87,56,30.30,30.10,3,0,5,0.04
2013-10-31,62,53,38,58,51,36,96,91,85,30.09,29.41,7,2,13,0.58
2013-11-1,63,57,48,59,50,42,94,77,56,29.65,29.18,29,11,42,0.30
2013-11-2,51,45,37,46,43,35,95,91,82,29.96,29.58,9,3,13,0.38
2013-11-3,37,34,26,35,27,23,94,76,60,30.53,29.97,7,2,11,0.00
2013-11-4,42,32,20,29,21,17,96,67,39,30.66,30.46,8,1,10,0.00
2013-11-5,55,45,34,35,29,21,65,54,45,30.48,30.32,6,2,9,0.00
2013-11-6,63,54,45,53,44,36,85,70,56,30.33,29.78,11,3,16,0.02
2013-11-7,58,44,37,54,38,31,94,81,64,29.96,29.76,16,6,19,0.40
2013-11-8,41,38,34,34,30,26,92,75,57,30.21,29.92,18,7,24,0.04
2013-11-9,51,41,32,41,32,28,86,70,55,30.20,29.76,9,3,21,0.00
2013-11-10,51,43,40,42,36,30,92,76,65,30.11,29.75,25,10,41,0.06
2013-11-11,46,37,29,37,32,27,96,81,56,30.14,29.90,21,6,28,0.14
2013-11-12,32,28,25,28,23,19,95,82,69,30.37,30.08,16,6,22,0.00
2013-11-13,37,30,20,26,20,14,77,68,52,30.42,30.08,19,7,24,0.00
2013-11-14,52,42,34,28,19,11,61,42,22,30.11,30.00,22,9,26,0.00
2013-11-15,52,46,41,29,21,17,52,38,31,30.11,30.03,12,3,15,0.00
2013-11-16,59,49,37,40,33,23,72,56,41,30.24,30.05,6,2,11,0.00
2013-11-17,59,54,50,54,49,41,93,83,71,30.05,29.36,29,4,29,0.16
2013-11-18,55,47,36,49,36,27,87,66,55,29.86,29.34,38,16,40,0.04
2013-11-19,37,34,26,29,26,23,90,73,61,30.44,29.86,18,6,29,0.00
2013-11-20,37,29,21,22,20,16,92,70,47,30.61,30.44,5,1,9,0.00
2013-11-21,45,38,29,37,25,15,89,60,47,30.49,30.26,7,2,15,0.01
2013-11-22,48,42,33,46,40,28,97,93,81,30.25,29.96,18,4,27,0.29
2013-11-23,36,28,18,28,21,9,93,77,51,30.16,29.97,24,10,36,0.00
2013-11-24,23,19,16,17,14,9,92,79,60,30.40,30.14,16,8,27,0.00
2013-11-25,34,27,17,19,14,6,84,59,31,30.40,30.11,12,4,17,0.00
2013-11-26,36,33,32,31,28,20,97,81,59,30.15,29.82,11,3,19,0.00
2013-11-27,34,30,22,32,28,17,98,90,75,29.86,29.57,14,0,21,0.00
2013-11-28,28,22,18,19,15,13,89,75,59,30.43,29.87,14,5,23,0.00
2013-11-29,27,19,5,21,14,3,94,82,59,30.75,30.43,9,1,11,0.00
2013-11-30,31,20,3,22,14,0,94,77,60,30.74,30.22,9,2,13,0.00
2013-12-1,39,32,28,33,28,21,96,82,67,30.22,29.96,3,0,5,0.20
2013-12-2,42,36,32,35,32,31,97,89,68,29.96,29.85,3,0,4,0.17
2013-12-3,41,32,24,31,28,23,96,86,61,30.01,29.90,5,0,7,0.02
2013-12-4,47,37,27,40,34,26,96,88,73,30.04,29.91,6,1,9,0.01
2013-12-5,60,51,41,53,45,34,89,80,62,30.48,29.73,22,7,22,0.00
2013-12-6,41,34,31,34,28,23,95,82,71,30.74,30.13,12,5,12,0.20
2013-12-7,31,28,24,26,20,14,88,71,54,31.05,30.72,21,11,21,0.00
2013-12-8,28,24,18,23,16,12,91,69,54,31.08,30.51,15,4,15,0.00
2013-12-9,42,34,25,36,29,23,91,82,70,30.74,30.02,28,11,28,0.04
2013-12-10,34,25,20,25,17,9,93,71,59,30.55,30.41,26,12,26,0.00
2013-12-11,24,21,15,20,13,8,90,73,58,30.77,30.55,30,12,30,0.00
2013-12-12,18,15,10,14,10,6,91,78,61,30.82,30.54,23,10,23,0.00
2013-12-13,23,18,13,20,13,7,92,80,63,30.91,30.04,25,9,25,0.00
2013-12-14,22,12,6,21,8,-3,94,85,62,30.98,30.28,12,5,12,0.00
2013-12-15,23,20,15,22,17,10,94,87,64,30.33,29.77,26,8,26,0.00
2013-12-16,22,13,-5,16,9,-8,91,81,66,30.70,30.00,26,8,26,0.00
2013-12-17,28,16,-8,25,13,-12,92,88,81,30.68,29.93,12,2,12,0.00
2013-12-18,31,28,24,24,22,20,94,77,63,30.57,30.02,21,8,21,0.00
2013-12-19,42,35,25,33,26,17,85,71,57,30.54,29.91,21,4,21,0.03
2013-12-20,45,39,34,42,36,31,97,91,78,30.50,30.27,9,1,9,0.05
2013-12-21,54,39,31,51,38,30,98,97,90,30.38,30.22,12,2,12,0.78
2013-12-22,45,35,31,42,34,30,98,95,87,30.45,29.70,20,5,20,0.23
2013-12-23,41,37,27,38,34,24,94,88,70,30.50,30.12,16,4,18,0.00
2013-12-24,27,18,9,24,15,6,93,88,79,31.01,30.20,13,4,22,0.00
2013-12-25,25,19,1,18,12,-2,91,74,67,31.01,30.23,8,2,14,0.00
2013-12-26,33,27,22,28,20,13,93,76,65,30.78,30.06,18,5,29,0.00
2013-12-27,41,29,22,29,24,13,93,81,62,30.75,30.09,9,3,20,0.00
2013-12-28,44,37,28,35,31,25,95,77,62,30.58,29.94,17,4,22,0.00
2013-12-29,46,37,21,39,32,16,97,82,63,30.47,29.61,16,3,27,0.20
2013-12-30,30,17,14,28,12,7,92,81,73,30.72,29.73,18,4,23,0.00
2013-12-31,24,18,14,18,10,3,85,70,58,30.81,29.97,22,9,39,0.00
2014-1-1,20,16,10,14,10,6,90,78,61,30.90,30.23,16,3,20,0.00
2014-1-2,14,9,2,12,6,-1,90,89,88,30.75,29.98,10,4,21,0.00